This demonstration page uses our WeatherBlox Daily Observations layout. Learn more.

Left ArrowRight Arrow

Hourly Observations for April 8, 2018

Temp ( °F °C ) Dew Point ( °F °C ) Humidity (%) Winds ( mph kmh ) Pressure ( in mb ) Visibility ( mi km ) Precip ( " mm )
12:59 am 00:59 Cloudy with Light Rain 38 3.3 34 1.1 86 86 N 20 31 29.84 1010 5 8 0.03 0.76
1:59 am 01:59 Cloudy with Light Rain 38 3.3 34 1.1 86 86 N 13 20 29.83 1010 6 10 0.04 1.02
2:59 am 02:59 Cloudy with Light Rain/Snow 39 3.9 34 1.1 82 82 N 16 26 29.82 1010 8 13 0.04 1.02
3:37 am 03:37 Cloudy 39 3.9 31 -0.6 73 73 N 23 37 29.83 1010 10 16 0.00 0.03
3:42 am 03:42 Cloudy 40 4.4 30 -1.1 68 68 N 21 33 29.83 1010 10 16 0.00 0.03
3:59 am 03:59 Cloudy 39 3.9 32 0 76 76 NNW 15 24 29.83 1010 10 16 0.00 0.03
4:59 am 04:59 Cloudy 38 3.3 32 0 79 79 NNW 16 26 29.83 1010 10 16 0.00 0.00
5:59 am 05:59 Cloudy 38 3.3 31 -0.6 76 76 NNW 18 30 29.85 1011 10 16 0.00 0.00
6:59 am 06:59 Mostly Cloudy 38 3.3 29 -1.7 70 70 NNW 21 33 29.87 1012 10 16 0.00 0.00
7:59 am 07:59 Mostly Cloudy 38 3.3 28 -2.2 68 68 NNW 20 31 29.91 1013 10 16 0.00 0.00
8:59 am 08:59 Partly Cloudy 41 5 29 -1.7 62 62 NNW 15 24 29.93 1014 10 16 0.00 0.00
9:59 am 09:59 Partly Cloudy 44 6.7 29 -1.7 55 55 N 21 33 29.96 1015 10 16 0.00 0.00
10:59 am 10:59 Partly Cloudy 44 6.7 25 -3.9 47 47 NNE 21 33 29.98 1015 10 16 0.00 0.00
11:59 am 11:59 Partly Cloudy 45 7.2 26 -3.3 48 48 NNE 18 30 29.99 1016 10 16 0.00 0.00
12:59 pm 12:59 Partly Cloudy 45 7.2 25 -3.9 46 46 NE 14 22 29.98 1015 10 16 0.00 0.00
1:59 pm 13:59 Partly Cloudy 46 7.8 26 -3.3 46 46 NNE 9 15 29.98 1015 10 16 0.00 0.00
2:59 pm 14:59 Partly Cloudy 47 8.3 26 -3.3 44 44 VRB 6 9 29.98 1015 10 16 0.00 0.00
3:59 pm 15:59 Partly Cloudy 49 9.4 27 -2.8 43 43 ENE 8 13 29.97 1015 10 16 0.00 0.00
4:59 pm 16:59 Partly Cloudy 49 9.4 27 -2.8 43 43 ENE 8 13 29.98 1015 10 16 0.00 0.00
5:59 pm 17:59 Partly Cloudy 47 8.3 28 -2.2 48 48 ENE 3 6 29.99 1016 10 16 0.00 0.00
6:59 pm 18:59 Mostly Cloudy 45 7.2 29 -1.7 54 54 E 6 9 30.01 1016 10 16 0.00 0.00
7:59 pm 19:59 Mostly Cloudy 42 5.6 30 -1.1 62 62 ESE 5 7 30.03 1017 10 16 0.00 0.00
8:59 pm 20:59 Cloudy 42 5.6 29 -1.7 60 60 SE 5 7 30.05 1018 10 16 0.00 0.00
9:59 pm 21:59 Cloudy 43 6.1 30 -1.1 60 60 S 6 9 30.08 1019 10 16 0.00 0.00
10:59 pm 22:59 Mostly Cloudy 42 5.6 31 -0.6 65 65 SSE 6 9 30.08 1019 10 16 0.00 0.00
11:59 pm 23:59 Mostly Cloudy 42 5.6 31 -0.6 65 65 S 6 9 30.10 1019 10 16 0.00 0.00

Powered by AerisWeather